Showing default

VINDLER 2.3, 68486

Orbit data source: Space-Track

VINDLER 2.3, 68486 is a payload satellite owned by Sierra Nevada (US) in SSO that was launched on Mon, 30 Mar 2026 UTC via an FALCON 9 launch vehicle from the Air Force Western Test Range (AFWTR). Payload-class satellites include a variety of spacecraft equipped with specific instruments for various scientific and technological missions. These include communications satellites like Starlink; space stations such as the ISS; scientific satellites like the Hubble; Earth observation satellites from companies like Planet Labs, Umbra, and HawkEye 360; GPS; miniature CubeSats for education and research; and military/defense satellites.

Loading next visibility...
Identifier
68486, 2026-067BY
Orbit
SSO
Country
Flag of USUS
Related business
Manufacturer
Muon Space
Mission
Operational Commercial Sigint
Bus & Motor
MUON HALO, Unknown motor
Mass
~130 kg wet, ~130 kg dry
Launch date (UTC)
2026-03-30 (3 months ago)
Launch vehicle
FALCON 9
Launch site
Air Force Western Test Range (AFWTR)
Object type
Payload
Rocket body
Debris
Shape & HBR
Box + 2 Pan, 2.5 m
Radar Cross Section
2.173 m², Large (>1 m²)

Expand to show TLE details & history
Last TLE update: 13 hours ago

TLE from 13 hours ago
0 VINDLER 2.3
1 68486U 26067BY  26193.86235323  .00000710  00000-0  75408-4 0  9992
2 68486  97.7589 151.7200 0000989 114.5197 245.6125 14.92058525 15551
Epoch: 2026-07-12T20:41Z
TLE epoch observation values (Epoch: 2026-07-12T20:41:47.319Z)
Latitude
-0.00001°
Longitude
-89.48229°
Altitude
594.845 km
Speed
7.562 km/s
True Right ascension
10h 06m 52s
True Declination
0° 00' 00"
Sunlit
Object was in daylight at epoch
Visualization orbit readout
Latitude
Unknown
Longitude
Unknown
Altitude
Unknown
Speed
Unknown
Apparent Right ascension
Unknown
Apparent Declination
Unknown
Sunlit
N/A
Visualization observer readout
Local Sidereal Time
22:24:24
Azimuth
Unknown
Elevation
Unknown
Doppler factor
Unknown
Orbital elements
Apogee altitude
589.225 km
Perigee altitude
587.847 km
Semi-major axis
6,966.673 km
Eccentricity
0.0001
Inclination
97.7589°
RAAN
151.72°
Arg. of periapsis
114.5197°
True anomaly
245.60218°
Mean anomaly
245.6125°
Eccentric anomaly
245.60734°
Mean motion
3.73254 °/min
Orbital period
96.45 mins
BSTAR
0.000075408
Loading maneuver chart data...
Computing Atmospheric mass density...
Loading historical data...
Loading historical data...
Loading historical data...
Loading historical data...
Loading historical data...
Loading historical data...
Loading historical data...

Documentation

Showing up to 5 results
|